Content
SEND FEEDBACK

Daily
Averages
Monthly
Summary
United States of America

ST. LOUIS - SAINT LOUIS UNIVERSITY, MISSOURI


Home > North America > United States > Missouri
Elevation: 580 feet     Latitude: 38 38N     Longitude: 090 14W

WEATHER
 
SELECT A DAY
Number of Records: 188,419;   Date Range: 1/1/95 - 9/29/14
 
SHARE

PRINT THIS DATA

[ ← Previous Day ]
WEATHER ALMANAC - JUNE 14, 2013
[ Next Day → ]
[ °C ]   °F
Weather ElementAverageHighLow
Temperature73.1 °F82.9 °F (2:53 pm)59 °F (4:53 am)
Dewpoint57.3 °F63 °F (10:53 pm)55 °F (8:53 am)
Humidity60.6 %93 % (4:53 am)39 % (2:53 pm)
Barometer30.04 in30.09 in (8:53 am)29.98 in (5:53 pm)
Wind Speed3.5 mph10.4 mph (8:53 am)
Weather ElementAverage
Visibility10 mi
Wind DirectionENE (51.7 °)

Weather ElementTotal
Precipitation---
Cooling Degree Days6 (Base 65)
Growing Degree Days21 (Base 50)
Averaged from 23 records on June 14, 2013
WEATHER CONDITIONS BREAKOUT
WIND DIRECTION BREAKOUT
WEATHER BY HOUR - JUNE 14, 2013
[ °C ]   °F
Local TimeTemperatureDewpointHumidityBarometerVisibilityWind DirectionWind SpeedGust SpeedPrecipitationEventsConditions
1:53 AM61.0 °F55.9 °F83 %30.00 in10.0 miCalmClear
2:53 AM61.0 °F57.0 °F87 %30.02 in10.0 miCalmClear
3:53 AM60.1 °F57.0 °F90 %30.01 in10.0 miCalmClear
4:53 AM59.0 °F57.0 °F93 %30.03 in10.0 miESE (120°)3.5 mphClear
5:53 AM60.1 °F57.0 °F90 %30.05 in10.0 miCalmClear
6:53 AM64.9 °F57.0 °F75 %30.07 in10.0 miEast (100°)3.5 mphClear
7:53 AM68.0 °F57.0 °F68 %30.08 in10.0 miESE (120°)6.9 mphClear
8:53 AM73.0 °F55.0 °F53 %30.09 in10.0 miESE (110°)10.4 mphClear
9:53 AM75.9 °F55.0 °F48 %30.09 in10.0 miVariable6.9 mphClear
10:53 AM79.0 °F55.9 °F45 %30.08 in10.0 miSE (130°)6.9 mphClear
11:53 AM80.1 °F57.0 °F45 %30.06 in10.0 miSE (140°)6.9 mphClear
12:53 PM81.0 °F55.9 °F42 %30.06 in10.0 miVariable3.5 mphClear
1:53 PM81.0 °F55.9 °F42 %30.05 in10.0 miCalmClear
2:53 PM82.9 °F55.9 °F39 %30.07 in10.0 miCalmPartly Cloudy
3:53 PM82.9 °F55.9 °F39 %30.06 in10.0 miNE (40°)9.2 mphClear
4:53 PM82.0 °F55.0 °F39 %30.00 in10.0 miNE (40°)6.9 mphClear
5:53 PM81.0 °F57.9 °F45 %29.98 in10.0 miCalmClear
6:53 PM81.0 °F57.9 °F45 %29.98 in10.0 miESE (110°)5.8 mphClear
7:53 PM78.1 °F60.1 °F54 %29.99 in10.0 miEast (100°)5.8 mphClear
8:53 PM77.0 °F60.1 °F56 %29.99 in10.0 miCalmClear
9:53 PM72.0 °F59.0 °F64 %30.01 in10.0 miCalmClear
10:53 PM70.0 °F63.0 °F78 %30.02 in10.0 miCalmPartly Cloudy
11:53 PM70.0 °F61.0 °F73 %30.02 in10.0 miSouth (180°)3.5 mphClear
Hourly data recorded from KCPS, located miles away from St. Louis - Saint Louis University, Missouri







STORIES FROM OUR PARTNERS